FW9290 Weather Reports


Display with metric or nautical units.
time (UTC)temp
F
wind
direction
speed
MPH
gust
MPH
rain 1hr
in
rain 24hr
in
rain mn
in
humidity
%
barometer
mb
20260505224019 83 0 0.0 2.0 0.00 0.00 0.00 80 1007.6
20260505223518 83 244 0.0 2.0 0.00 0.00 0.00 79 1007.5
20260505223039 83 0 0.0 2.0 0.00 0.00 0.00 78 1007.4
20260505222524 83 0 0.0 1.0 0.00 0.00 0.00 78 1007.5
20260505222019 83 265 0.0 1.0 0.00 0.00 0.00 78 1007.6
20260505221536 83 0 0.0 2.0 0.00 0.00 0.00 79 1007.5
20260505221019 83 255 0.0 2.0 0.00 0.00 0.00 78 1007.6
20260505220520 83 0 0.0 1.0 0.00 0.00 0.00 79 1007.6
20260505220039 83 0 0.0 2.0 0.00 0.00 0.00 78 1007.6
20260505215520 84 0 0.0 2.0 0.00 0.00 0.00 78 1007.7
20260505215021 84 99 0.0 1.0 0.00 0.00 0.00 78 1007.7
20260505214537 84 0 0.0 3.0 0.00 0.00 0.00 78 1007.7
20260505214023 84 0 0.0 3.0 0.00 0.00 0.00 77 1007.7
20260505213519 84 224 0.0 3.0 0.00 0.00 0.00 77 1007.8
20260505213038 84 246 0.0 5.0 0.00 0.00 0.00 77 1007.9
20260505212519 84 0 0.0 5.0 0.00 0.00 0.00 76 1008.0
20260505212019 84 64 0.0 5.0 0.00 0.00 0.00 77 1008.0
20260505211540 84 252 1.0 3.0 0.00 0.00 0.00 76 1008.0
20260505211019 84 217 0.0 4.0 0.00 0.00 0.00 77 1008.1
20260505210522 84 123 0.0 4.0 0.00 0.00 0.00 77 1008.1
20260505210035 83 231 0.0 3.0 0.00 0.00 0.00 78 1008.1
20260505205519 83 234 0.0 3.0 0.00 0.00 0.00 78 1008.3
20260505205026 83 248 0.0 6.0 0.00 0.00 0.00 79 1008.3
20260505204548 83 0 0.0 6.0 0.00 0.00 0.00 79 1008.3
20260505204023 83 293 0.0 6.0 0.00 0.00 0.00 79 1008.4
20260505203521 83 0 0.0 2.0 0.00 0.00 0.00 80 1008.6
20260505203038 83 257 0.0 1.0 0.00 0.00 0.00 80 1008.8
20260505202520 83 0 0.0 1.0 0.00 0.00 0.00 80 1008.6
20260505202019 83 226 0.0 1.0 0.00 0.00 0.00 79 1008.8
20260505201535 84 0 0.0 2.0 0.00 0.00 0.00 78 1008.9
20260505201019 84 0 0.0 2.0 0.00 0.00 0.00 78 1008.9
20260505200521 84 255 0.0 2.0 0.00 0.00 0.00 77 1008.9
20260505200034 84 276 1.0 2.0 0.00 0.00 0.00 76 1009.0
20260505195518 84 191 0.0 2.0 0.00 0.00 0.00 78 1009.1
20260505195018 83 276 0.0 2.0 0.00 0.00 0.00 79 1009.1
20260505194545 83 259 0.0 2.0 0.00 0.00 0.00 80 1009.2
20260505194022 82 0 0.0 3.0 0.00 0.00 0.00 80 1009.3
20260505193522 82 292 0.0 3.0 0.00 0.00 0.00 80 1009.3
20260505193037 82 0 0.0 1.0 0.00 0.00 0.00 81 1009.4
20260505192518 82 0 0.0 3.0 0.00 0.00 0.00 81 1009.3
20260505192021 82 0 0.0 3.0 0.00 0.00 0.00 80 1009.5
20260505191552 82 241 0.0 3.0 0.00 0.00 0.00 80 1009.4
20260505191021 82 0 0.0 3.0 0.00 0.00 0.00 81 1009.4
20260505190522 81 237 0.0 2.0 0.00 0.00 0.00 82 1009.4
20260505190040 81 0 0.0 3.0 0.00 0.00 0.00 83 1009.5
20260505185519 80 238 0.0 3.0 0.00 0.00 0.00 83 1009.6
20260505185023 80 252 0.0 3.0 0.00 0.00 0.00 83 1009.6
20260505184538 81 252 0.0 3.0 0.00 0.00 0.00 82 1009.6
20260505184019 81 251 0.0 3.0 0.00 0.00 0.00 82 1009.7
20260505183518 81 223 0.0 1.0 0.00 0.00 0.00 83 1009.6
20260505183035 81 0 0.0 2.0 0.00 0.00 0.00 84 1009.7
20260505182518 80 0 0.0 2.0 0.00 0.00 0.00 84 1009.8
20260505182018 79 0 0.0 1.0 0.00 0.00 0.00 85 1009.8
20260505181540 79 0 0.0 1.0 0.00 0.00 0.00 85 1009.9
20260505181019 79 0 0.0 3.0 0.00 0.00 0.00 85 1009.9
20260505180518 80 0 0.0 3.0 0.00 0.00 0.00 85 1009.9
20260505180046 80 0 0.0 3.0 0.00 0.00 0.00 84 1009.9
20260505175518 79 255 0.0 3.0 0.00 0.00 0.00 85 1009.9
20260505175019 79 0 0.0 2.0 0.00 0.00 0.00 85 1010.0
20260505174536 79 188 0.0 2.0 0.00 0.00 0.00 86 1010.0
20260505174019 79 213 0.0 1.0 0.00 0.00 0.00 86 1010.0
20260505173521 79 0 0.0 3.0 0.00 0.00 0.00 86 1010.1
20260505173034 79 0 0.0 3.0 0.00 0.00 0.00 86 1010.1
20260505172518 79 0 0.0 1.0 0.00 0.00 0.00 87 1010.0
20260505172018 79 0 0.0 2.0 0.00 0.00 0.00 86 1010.0
20260505171538 79 0 0.0 2.0 0.00 0.00 0.00 85 1010.1
20260505171019 79 0 0.0 2.0 0.00 0.00 0.00 85 1010.2
20260505170518 79 0 0.0 2.0 0.00 0.00 0.00 85 1010.2
20260505170035 79 0 0.0 2.0 0.00 0.00 0.00 85 1010.2
20260505165519 79 257 0.0 2.0 0.00 0.00 0.00 84 1010.2
20260505165019 79 0 0.0 2.0 0.00 0.00 0.00 85 1010.3
20260505164533 79 0 0.0 2.0 0.00 0.00 0.00 85 1010.2
20260505164019 79 0 0.0 1.0 0.00 0.00 0.00 85 1010.2
20260505163519 79 226 0.0 1.0 0.00 0.00 0.00 85 1010.2
20260505163033 79 258 0.0 2.0 0.00 0.00 0.00 86 1010.2
20260505162518 79 0 0.0 2.0 0.00 0.00 0.00 86 1010.1
20260505162022 78 0 0.0 2.0 0.00 0.00 0.00 86 1010.1
20260505161535 78 0 0.0 2.0 0.00 0.00 0.00 85 1010.0
20260505161019 78 0 0.0 2.0 0.00 0.00 0.00 85 1010.0
20260505160519 79 223 0.0 2.0 0.00 0.00 0.00 85 1010.0
20260505153036 78 0 0.0 2.0 0.00 0.00 0.00 87 1009.8
20260505152519 77 255 0.0 2.0 0.00 0.00 0.00 86 1009.8
20260505152022 77 0 0.0 2.0 0.00 0.00 0.00 86 1009.7
20260505151541 77 301 0.0 3.0 0.00 0.00 0.00 87 1009.8
20260505151021 77 64 0.0 3.0 0.00 0.00 0.00 86 1009.7
20260505150520 77 219 0.0 2.0 0.00 0.00 0.00 87 1009.7
20260505140520 76 0 0.0 1.0 0.00 0.00 0.00 89 1009.8
20260505125019 73 0 0.0 2.0 0.00 0.00 0.00 92 1009.6
20260505124542 73 0 0.0 1.0 0.00 0.00 0.00 92 1009.5
20260505124021 73 0 0.0 1.0 0.00 0.00 0.00 92 1009.4
20260505123520 73 0 0.0 1.0 0.00 0.00 0.00 92 1009.5
20260505123044 72 0 0.0 1.0 0.00 0.00 0.00 92 1009.4
20260505122519 72 0 0.0 1.0 0.00 0.00 0.00 92 1009.4
20260505122019 72 0 0.0 1.0 0.00 0.00 0.00 92 1009.2
20260505121610 72 0 0.0 1.0 0.00 0.00 0.00 92 1009.1
20260505121021 72 0 0.0 1.0 0.00 0.00 0.00 92 1008.9
20260505120519 72 0 0.0 0.0 0.00 0.00 0.00 91 1008.9
20260505120036 72 0 0.0 1.0 0.00 0.00 0.00 92 1008.7
20260505115520 72 0 0.0 1.0 0.00 0.00 0.00 92 1008.9
20260505115021 72 0 0.0 1.0 0.00 0.00 0.00 92 1009.2
20260505114536 72 0 0.0 1.0 0.00 0.00 0.00 92 1009.3
20260505114020 72 0 0.0 1.0 0.00 0.00 0.00 92 1009.4
20260505113519 72 0 0.0 1.0 0.00 0.00 0.00 92 1009.2
20260505113032 72 0 0.0 1.0 0.00 0.00 0.00 92 1009.1
20260505112519 72 227 0.0 0.0 0.00 0.00 0.00 92 1009.0
20260505112019 72 0 0.0 0.0 0.00 0.00 0.00 92 1009.0
20260505111539 72 0 0.0 0.0 0.00 0.00 0.00 92 1008.9
20260505111019 71 0 0.0 0.0 0.00 0.00 0.00 92 1008.9
20260505110519 71 0 0.0 0.0 0.00 0.00 0.00 92 1008.9
20260505102019 71 0 0.0 0.0 0.00 0.00 0.00 92 1009.0
20260505101541 71 0 0.0 1.0 0.00 0.00 0.00 92 1009.0
20260505101020 71 0 0.0 1.0 0.00 0.00 0.00 92 1009.1
20260505100519 71 0 0.0 0.0 0.00 0.00 0.00 92 1009.2
20260505100042 71 0 0.0 0.0 0.00 0.00 0.00 92 1009.2
20260505095522 71 0 0.0 1.0 0.00 0.00 0.00 91 1009.1
20260505095022 71 0 0.0 1.0 0.00 0.00 0.00 91 1009.0
20260505094536 71 0 0.0 1.0 0.00 0.00 0.00 91 1009.0
20260505094019 71 0 0.0 1.0 0.00 0.00 0.00 91 1009.1
20260505093520 71 0 0.0 1.0 0.00 0.00 0.00 91 1009.1
20260505093035 71 0 0.0 1.0 0.00 0.00 0.00 91 1009.2
20260505092521 71 0 0.0 1.0 0.00 0.00 0.00 91 1009.2
20260505092018 71 0 0.0 0.0 0.00 0.00 0.00 91 1009.4
20260505091539 71 0 0.0 0.0 0.00 0.00 0.00 91 1009.4
20260505091021 71 0 0.0 1.0 0.00 0.00 0.00 91 1009.4
20260505090519 71 0 0.0 1.0 0.00 0.00 0.00 91 1009.4
20260505090046 71 0 0.0 1.0 0.00 0.00 0.00 91 1009.4
20260505085519 71 0 0.0 1.0 0.00 0.00 0.00 91 1009.5
20260505085022 71 0 0.0 0.0 0.00 0.00 0.00 91 1009.4
20260505084535 71 0 0.0 0.0 0.00 0.00 0.00 91 1009.4
20260505084018 71 0 0.0 1.0 0.00 0.00 0.00 91 1009.3
20260505083521 70 0 0.0 1.0 0.00 0.00 0.00 91 1009.5
20260505083048 70 0 0.0 1.0 0.00 0.00 0.00 91 1009.5
20260505082519 70 0 0.0 1.0 0.00 0.00 0.00 91 1009.5
20260505082019 70 0 0.0 1.0 0.00 0.00 0.00 91 1009.5
20260505081540 70 0 0.0 1.0 0.00 0.00 0.00 91 1009.6
20260505081019 70 0 0.0 0.0 0.00 0.00 0.00 90 1009.7
20260505080518 70 0 0.0 0.0 0.00 0.00 0.00 90 1009.8
20260505080044 70 0 0.0 0.0 0.00 0.00 0.00 90 1009.8
20260505075543 71 0 0.0 0.0 0.00 0.00 0.00 90 1009.7
20260505075018 71 0 0.0 0.0 0.00 0.00 0.00 90 1009.8
20260505074538 71 0 0.0 0.0 0.00 0.00 0.00 90 1009.8
20260505074022 71 0 0.0 0.0 0.00 0.00 0.00 90 1009.9
20260505073520 71 0 0.0 0.0 0.00 0.00 0.00 90 1009.9
20260505073043 71 0 0.0 0.0 0.00 0.00 0.00 90 1009.9
20260505072521 71 0 0.0 2.0 0.00 0.00 0.00 90 1009.8
20260505072018 70 0 0.0 2.0 0.00 0.00 0.00 90 1009.9
20260505071542 70 353 0.0 1.0 0.00 0.00 0.00 90 1010.0
20260505071022 70 0 0.0 1.0 0.00 0.00 0.00 90 1010.0
20260505070519 70 41 0.0 1.0 0.00 0.00 0.00 90 1010.1
20260505070038 70 0 0.0 1.0 0.00 0.00 0.00 89 1010.1
20260505065519 70 0 0.0 1.0 0.00 0.00 0.00 89 1010.3
20260505065020 70 0 0.0 1.0 0.00 0.00 0.00 89 1010.2
20260505064537 70 0 0.0 1.0 0.00 0.00 0.00 89 1010.4
20260505064019 70 0 0.0 1.0 0.00 0.00 0.00 89 1010.4
20260505063518 70 0 0.0 0.0 0.00 0.00 0.00 89 1010.6
20260505063045 70 0 0.0 0.0 0.00 0.00 0.00 89 1010.7
20260505062519 70 0 0.0 1.0 0.00 0.00 0.00 88 1010.8
20260505062026 70 0 0.0 1.0 0.00 0.00 0.00 88 1010.8
20260505061540 70 0 0.0 1.0 0.00 0.00 0.00 88 1011.1
20260505061022 70 0 0.0 1.0 0.00 0.00 0.00 88 1011.1
20260505060519 70 0 0.0 1.0 0.00 0.00 0.00 88 1010.9
20260505060037 70 0 0.0 1.0 0.00 0.00 0.00 88 1010.8
20260505055519 70 0 0.0 0.0 0.00 0.00 0.00 88 1010.8
20260505055019 70 0 0.0 1.0 0.00 0.00 0.00 87 1010.8
20260505054549 70 0 0.0 1.0 0.00 0.00 0.00 87 1010.8
20260505054020 70 0 0.0 1.0 0.00 0.00 0.00 87 1011.0
20260505053519 70 0 0.0 1.0 0.00 0.00 0.00 87 1011.1
20260505053044 70 0 0.0 0.0 0.00 0.00 0.00 87 1011.3
20260505052518 70 0 0.0 1.0 0.00 0.00 0.00 87 1011.3
20260505052024 70 0 0.0 1.0 0.00 0.00 0.00 87 1011.3
20260505051541 70 0 0.0 1.0 0.00 0.00 0.00 86 1011.3
20260505051019 70 0 0.0 0.0 0.00 0.00 0.00 86 1011.2
20260505050525 70 0 0.0 0.0 0.00 0.00 0.00 86 1011.3
20260505041544 71 0 0.0 1.0 0.00 0.00 0.00 83 1011.4
20260505041022 71 0 0.0 2.0 0.00 0.00 0.00 83 1011.7
20260505040519 72 0 0.0 2.0 0.00 0.00 0.00 83 1011.7
20260505040043 72 0 0.0 2.0 0.00 0.00 0.00 83 1011.7
20260505035524 72 0 0.0 1.0 0.00 0.00 0.00 82 1011.7
20260505035020 72 0 0.0 1.0 0.00 0.00 0.00 82 1011.8
20260505034537 72 0 0.0 1.0 0.00 0.00 0.00 82 1011.9
20260505034019 72 0 0.0 2.0 0.00 0.00 0.00 81 1011.9
20260505033519 72 79 0.0 2.0 0.00 0.00 0.00 81 1011.9
20260505033033 72 0 0.0 1.0 0.00 0.00 0.00 81 1012.0
20260505032522 73 0 0.0 5.0 0.00 0.00 0.00 81 1011.9
20260505032019 73 0 0.0 5.0 0.00 0.00 0.00 80 1011.8
20260505031539 73 0 0.0 1.0 0.00 0.00 0.00 80 1011.9
20260505031018 73 0 0.0 3.0 0.00 0.00 0.00 80 1011.8
20260505030518 73 0 0.0 3.0 0.00 0.00 0.00 80 1011.9
20260505030051 73 0 0.0 5.0 0.00 0.00 0.00 80 1011.9
20260505025523 73 0 0.0 5.0 0.00 0.00 0.00 79 1011.9
20260505025017 73 231 0.0 1.0 0.00 0.00 0.00 80 1011.9
20260505024534 73 0 0.0 3.0 0.00 0.00 0.00 80 1011.9
20260505024019 73 229 0.0 3.0 0.00 0.00 0.00 79 1011.8
20260505023519 73 214 0.0 1.0 0.00 0.00 0.00 79 1011.7
20260505023036 73 245 0.0 1.0 0.00 0.00 0.00 79 1011.7
20260505022519 73 0 0.0 3.0 0.00 0.00 0.00 79 1011.6
20260505022019 73 0 0.0 3.0 0.00 0.00 0.00 79 1011.6
20260505021544 73 230 0.0 2.0 0.00 0.00 0.00 79 1011.7
20260505021018 74 0 0.0 2.0 0.00 0.00 0.00 79 1011.7
20260505020519 73 0 0.0 1.0 0.00 0.00 0.00 78 1011.6
20260505020047 73 0 0.0 1.0 0.00 0.00 0.00 78 1011.6
20260505015520 74 0 0.0 1.0 0.00 0.00 0.00 78 1011.6
20260505015019 74 0 0.0 1.0 0.00 0.00 0.00 78 1011.5
20260505014540 74 0 0.0 1.0 0.00 0.00 0.00 78 1011.5
20260505014020 74 0 0.0 3.0 0.00 0.00 0.00 78 1011.4
20260505013519 74 0 0.0 3.0 0.00 0.00 0.00 78 1011.3
20260505013037 74 0 0.0 2.0 0.00 0.00 0.00 77 1011.3
20260505012519 74 266 0.0 2.0 0.00 0.00 0.00 77 1011.3
20260505012022 74 0 0.0 1.0 0.00 0.00 0.00 77 1011.1
20260505011536 74 0 0.0 1.0 0.00 0.00 0.00 76 1011.2
20260505011018 75 0 0.0 1.0 0.00 0.00 0.00 76 1011.3
20260505010518 75 0 0.0 1.0 0.00 0.00 0.00 75 1011.2
20260505010057 75 0 0.0 1.0 0.00 0.00 0.00 75 1011.1
20260505005520 75 0 0.0 2.0 0.00 0.00 0.00 74 1011.0
20260505005023 75 67 0.0 2.0 0.00 0.00 0.00 74 1011.1
20260505004535 76 71 0.0 1.0 0.00 0.00 0.00 74 1011.0
20260505004019 76 0 0.0 3.0 0.00 0.00 0.00 73 1010.9
20260505003519 76 0 0.0 3.0 0.00 0.00 0.00 73 1010.9
20260505003046 76 0 0.0 3.0 0.00 0.00 0.00 72 1010.9
20260505002520 76 0 0.0 3.0 0.00 0.00 0.00 72 1010.9
20260505002019 77 0 0.0 1.0 0.00 0.00 0.00 72 1010.8
20260505001539 77 87 0.0 1.0 0.00 0.00 0.00 71 1010.8
20260505001023 77 0 0.0 1.0 0.00 0.00 0.00 71 1010.9
20260505000520 77 0 0.0 2.0 0.00 0.00 0.00 71 1010.9
20260505000043 77 210 0.0 2.0 0.00 0.00 0.00 71 1010.9
20260504235519 78 0 0.0 2.0 0.00 0.00 0.00 70 1011.0
20260504235019 78 0 0.0 2.0 0.00 0.00 0.00 70 1011.0
20260504234534 78 0 0.0 2.0 0.00 0.00 0.00 70 1011.1
20260504234018 78 215 0.0 1.0 0.00 0.00 0.00 70 1011.4
20260504233518 78 0 0.0 3.0 0.00 0.00 0.00 70 1011.3
20260504233041 78 0 0.0 3.0 0.00 0.00 0.00 69 1011.3
20260504232519 78 0 0.0 2.0 0.00 0.00 0.00 69 1011.6
20260504232018 78 0 0.0 2.0 0.00 0.00 0.00 69 1011.5
20260504231535 78 0 0.0 2.0 0.00 0.00 0.00 69 1011.5
20260504231018 79 0 0.0 2.0 0.00 0.00 0.00 68 1011.6
20260504230521 79 250 0.0 2.0 0.00 0.00 0.00 68 1011.6
20260504230048 79 0 0.0 2.0 0.00 0.00 0.00 68 1011.7
20260504225520 79 0 0.0 2.0 0.00 0.00 0.00 68 1011.8
20260504225019 79 0 0.0 2.0 0.00 0.00 0.00 68 1011.8
20260504224550 79 0 0.0 2.0 0.00 0.00 0.00 68 1011.8